TimeAKST,TemperatureF,Dew PointF,Humidity,Sea Level PressureIn,VisibilityMPH,Wind Direction,Wind SpeedMPH,Gust SpeedMPH,PrecipitationIn,Events,Conditions,WindDirDegrees,DateUTC
12:53 AM,37.0,30.9,79,29.34,10.0,East,4.6,-,N/A,,Overcast,90,2013-01-23 09:53:00
1:53 AM,37.0,30.0,76,29.33,10.0,ESE,4.6,-,N/A,,Mostly Cloudy,120,2013-01-23 10:53:00
3:53 AM,37.0,30.9,79,29.29,10.0,Calm,Calm,-,N/A,,Mostly Cloudy,0,2013-01-23 12:53:00
4:53 AM,35.1,30.0,82,29.27,10.0,NNE,4.6,-,N/A,,Mostly Cloudy,20,2013-01-23 13:53:00
5:53 AM,35.1,30.9,85,29.26,10.0,Calm,Calm,-,N/A,,Mostly Cloudy,0,2013-01-23 14:53:00
6:53 AM,34.0,28.9,82,29.25,10.0,NW,3.5,-,N/A,,Overcast,320,2013-01-23 15:53:00
7:53 AM,36.0,30.9,82,29.24,10.0,Calm,Calm,-,N/A,,Overcast,0,2013-01-23 16:53:00
8:53 AM,37.0,30.9,79,29.24,10.0,NE,3.5,-,N/A,,Overcast,40,2013-01-23 17:53:00
9:53 AM,37.0,30.9,79,29.24,10.0,Calm,Calm,-,N/A,,Mostly Cloudy,0,2013-01-23 18:53:00
10:53 AM,37.9,30.9,76,29.24,10.0,North,3.5,-,N/A,,Scattered Clouds,10,2013-01-23 19:53:00
11:53 AM,39.9,32.0,73,29.23,10.0,Calm,Calm,-,N/A,,Mostly Cloudy,0,2013-01-23 20:53:00
12:53 PM,41.0,32.0,70,29.21,10.0,Calm,Calm,-,N/A,,Overcast,0,2013-01-23 21:53:00
1:53 PM,39.0,32.0,76,29.21,10.0,South,3.5,-,N/A,,Overcast,180,2013-01-23 22:53:00
2:53 PM,39.0,32.0,76,29.20,10.0,SSW,4.6,-,N/A,,Scattered Clouds,210,2013-01-23 23:53:00
3:53 PM,39.9,32.0,73,29.19,10.0,Calm,Calm,-,N/A,,Mostly Cloudy,0,2013-01-24 00:53:00
4:53 PM,42.1,30.9,65,29.20,10.0,Calm,Calm,-,N/A,,Overcast,0,2013-01-24 01:53:00
5:53 PM,39.0,30.0,70,29.22,10.0,Calm,Calm,-,N/A,,Mostly Cloudy,0,2013-01-24 02:53:00
6:53 PM,37.9,30.0,73,29.23,10.0,East,3.5,-,N/A,,Overcast,80,2013-01-24 03:53:00
7:53 PM,39.9,28.9,65,29.23,10.0,ESE,3.5,-,N/A,,Overcast,110,2013-01-24 04:53:00
8:53 PM,39.9,30.0,68,29.24,10.0,NE,9.2,-,N/A,,Overcast,40,2013-01-24 05:53:00
9:53 PM,37.9,28.9,70,29.26,10.0,NNE,3.5,-,N/A,,Scattered Clouds,20,2013-01-24 06:53:00
10:53 PM,39.0,30.0,70,29.26,10.0,SE,5.8,-,N/A,,Overcast,130,2013-01-24 07:53:00
11:53 PM,36.0,28.9,76,29.28,10.0,NNW,4.6,-,N/A,,Mostly Cloudy,340,2013-01-24 08:53:00